Location: Chakepay
(13.3931°S, 72.1925°W)
Time: 01:54:57
(UTC+00:00)

Cosmos 2237 Rocket - Pass Details

Date: 15 November 2019
Orbit: 834 x 850 km, 71.0° (Epoch: 15 December)

Event Time Altitude Azimuth Distance (km) Brightness Sun altitude
Rises 01:17:59 0° 182° (S) 3,404 5.8 -32.3°
Reaches altitude 10° 01:20:40 10° 172° (S) 2,467 4.8 -32.9°
Enters shadow 01:22:09 17° 163° (SSE) 2,003 4.2 -33.2°
